DW0148 Weather Reports


time (UTC)temp
F
wind
direction
speed
knots
gust
knots
rain 1hr
in
rain 24hr
in
rain mn
in
humidity
%
barometer
mb
20200124010827 39 80 0.9 1.7 0.00 0.02 0.02 94 1018.3
20200124010326 39 83 0.0 0.0 0.00 0.02 0.02 94 1018.3
20200124005825 39 82 0.0 0.0 0.00 0.02 0.02 94 1018.3
20200124005323 39 84 0.0 0.0 0.00 0.02 0.02 94 1018.3
20200124004822 39 82 0.0 0.0 0.00 0.02 0.02 94 1018.3
20200124004320 39 84 0.0 0.0 0.00 0.02 0.02 94 1018.3
20200124003816 39 82 0.0 0.0 0.00 0.02 0.02 94 1018.6
20200124003315 39 82 0.0 0.0 0.00 0.02 0.02 94 1018.3
20200124002814 39 83 0.0 0.0 0.00 0.02 0.02 94 1018.6
20200124002311 39 83 0.0 0.0 0.00 0.02 0.02 94 1018.6
20200124001810 39 84 0.0 1.7 0.00 0.02 0.02 93 1018.6
20200124001309 39 83 0.0 1.7 0.00 0.02 0.02 94 1018.6
20200124000808 39 83 0.0 1.7 0.00 0.02 0.02 93 1018.6
20200124000307 39 83 0.0 1.7 0.00 0.02 0.02 93 1018.3
20200123235801 39 83 0.0 1.7 0.00 0.02 0.02 93 1018.6
20200123235300 39 32 0.0 0.0 0.00 0.02 0.02 93 1018.6
20200123234758 39 32 0.0 0.0 0.00 0.02 0.02 93 1018.6
20200123234257 39 32 0.0 0.0 0.00 0.02 0.02 93 1018.6
20200123233755 39 32 0.0 0.0 0.00 0.02 0.02 93 1018.6
20200123233253 39 32 0.0 0.0 0.00 0.02 0.02 93 1018.3
20200123232756 39 32 0.0 0.0 0.00 0.02 0.02 93 1018.6
20200123231424 39 340 0.0 0.0 0.00 0.02 0.02 91 1018.6
20200123230923 39 340 0.0 0.0 0.00 0.02 0.02 91 1018.6
20200123230421 39 340 0.0 0.0 0.00 0.02 0.02 91 1018.6
20200123225920 40 340 0.0 1.7 0.00 0.02 0.02 91 1018.6
20200123225419 40 340 0.0 1.7 0.00 0.02 0.02 90 1018.6
20200123224918 40 340 0.0 1.7 0.01 0.02 0.02 89 1018.6
20200123224416 40 340 0.0 1.7 0.01 0.02 0.02 89 1018.6
20200123223915 40 340 0.9 1.7 0.01 0.02 0.02 89 1018.6
20200123223414 40 340 0.0 1.7 0.01 0.02 0.02 89 1018.6
20200123222912 40 340 0.0 1.7 0.01 0.02 0.02 88 1018.6
20200123222411 40 340 0.0 1.7 0.01 0.02 0.02 89 1019.0
20200123221910 40 340 0.0 0.0 0.01 0.02 0.02 88 1019.0
20200123221409 41 340 0.0 0.0 0.01 0.02 0.02 87 1019.0
20200123220908 41 340 0.0 0.0 0.01 0.02 0.02 86 1019.0
20200123220407 41 340 0.0 0.0 0.01 0.02 0.02 86 1019.0
20200123215906 41 340 0.0 0.0 0.01 0.02 0.02 84 1019.3
20200123215405 41 340 0.0 0.0 0.01 0.02 0.02 82 1019.3
20200123214903 41 340 0.0 0.0 0.00 0.01 0.01 81 1019.3
20200123214402 41 340 0.0 2.6 0.00 0.01 0.01 80 1019.3
20200123213901 41 340 0.0 2.6 0.00 0.01 0.01 80 1019.3
20200123213358 41 340 0.0 2.6 0.00 0.01 0.01 81 1019.3
20200123212857 41 340 0.9 2.6 0.00 0.01 0.01 79 1019.3
20200123212356 41 340 0.9 2.6 0.00 0.01 0.01 78 1019.3
20200123211854 41 338 0.0 2.6 0.00 0.01 0.01 77 1019.3
20200123211352 41 338 0.9 4.3 0.00 0.01 0.01 77 1019.3
20200123210849 41 334 0.9 4.3 0.00 0.01 0.01 78 1019.6
20200123210348 41 335 0.9 4.3 0.00 0.01 0.01 79 1019.3
20200123205846 41 313 1.7 4.3 0.00 0.01 0.01 77 1019.3
20200123205345 41 9 1.7 4.3 0.00 0.01 0.01 78 1019.3
20200123204844 41 348 0.9 2.6 0.00 0.01 0.01 78 1019.6
20200123204343 41 322 0.0 4.3 0.00 0.01 0.01 77 1019.6
20200123203842 41 325 1.7 4.3 0.00 0.01 0.01 77 1019.6
20200123203341 41 27 0.9 4.3 0.00 0.01 0.01 77 1019.6
20200123202840 41 1 2.6 5.2 0.00 0.01 0.01 76 1019.6
20200123202338 41 354 2.6 5.2 0.00 0.01 0.01 76 1019.6
20200123201837 41 335 0.9 5.2 0.00 0.01 0.01 77 1019.6
20200123201336 41 5 2.6 5.2 0.00 0.01 0.01 78 1019.6
20200123200835 41 355 2.6 5.2 0.00 0.01 0.01 77 1019.6
20200123200334 41 340 1.7 5.2 0.00 0.01 0.01 78 1020.0
20200123195833 40 311 1.7 7.8 0.00 0.01 0.01 78 1020.0
20200123195332 40 326 0.9 7.8 0.00 0.01 0.01 80 1020.0
20200123194831 40 350 2.6 7.8 0.00 0.01 0.01 80 1020.0
20200123194329 40 334 4.3 7.8 0.00 0.01 0.01 79 1020.0
20200123193828 40 350 3.5 7.0 0.00 0.01 0.01 79 1020.3
20200123193327 40 26 1.7 5.2 0.00 0.01 0.01 79 1020.3
20200123192826 40 352 1.7 5.2 0.00 0.01 0.01 79 1020.3
20200123192323 40 28 1.7 5.2 0.00 0.01 0.01 78 1020.3
20200123191822 40 355 2.6 4.3 0.01 0.01 0.01 81 1020.7
20200123191321 40 349 0.9 1.7 0.01 0.01 0.01 77 1021.0
20200123190824 40 259 0.0 1.7 0.01 0.01 0.01 79 1021.0
20200123160248 39 287 0.0 1.7 0.00 0.00 0.00 66 1024.7
20200123155746 38 287 0.9 4.3 0.00 0.00 0.00 65 1024.4
20200123155245 38 287 0.0 4.3 0.00 0.00 0.00 65 1024.4
20200123154744 38 301 0.0 4.3 0.00 0.00 0.00 65 1024.4
20200123154243 38 299 0.9 4.3 0.00 0.00 0.00 66 1024.4
20200123153742 38 21 1.7 4.3 0.00 0.00 0.00 66 1024.7
20200123153241 38 343 0.9 4.3 0.00 0.00 0.00 67 1024.7
20200123152739 37 345 1.7 4.3 0.00 0.00 0.00 66 1024.7
20200123152239 37 328 0.9 4.3 0.00 0.00 0.00 67 1024.7
20200123151738 37 2 1.7 4.3 0.00 0.00 0.00 67 1024.7
20200123151238 37 6 1.7 4.3 0.00 0.00 0.00 68 1024.4
20200123150735 37 344 1.7 2.6 0.00 0.00 0.00 69 1024.4
20200123150234 37 349 1.7 2.6 0.00 0.00 0.00 71 1024.4
20200123145733 36 347 1.7 2.6 0.00 0.00 0.00 71 1024.4
20200123145232 36 294 0.9 1.7 0.00 0.00 0.00 73 1024.4
20200123144731 36 336 0.9 1.7 0.00 0.00 0.00 73 1024.4
20200123144229 36 1 0.9 4.3 0.00 0.00 0.00 76 1024.4
20200123143728 36 0 0.9 5.2 0.00 0.00 0.00 76 1024.0
20200123143227 35 348 0.9 5.2 0.00 0.00 0.00 78 1024.0
20200123142726 35 347 1.7 5.2 0.00 0.00 0.00 78 1023.7
20200123142225 35 330 2.6 5.2 0.00 0.00 0.00 78 1023.7
20200123141723 35 353 1.7 4.3 0.00 0.00 0.00 81 1024.0
20200123141222 34 84 0.0 2.6 0.00 0.00 0.00 83 1024.0
20200123140721 34 85 0.9 2.6 0.00 0.00 0.00 84 1024.4
20200123140220 34 322 0.9 2.6 0.00 0.00 0.00 84 1024.0
20200123135719 34 243 0.9 1.7 0.00 0.00 0.00 85 1024.0
20200123135218 34 243 0.0 1.7 0.00 0.00 0.00 85 1024.0
20200123134717 33 243 0.0 1.7 0.00 0.00 0.00 85 1024.0
20200123134215 33 243 0.9 1.7 0.00 0.00 0.00 85 1024.4
20200123133714 33 243 0.0 1.7 0.00 0.00 0.00 85 1024.4
20200123133213 33 243 0.0 1.7 0.00 0.00 0.00 85 1024.4
20200123132712 33 243 0.0 1.7 0.00 0.00 0.00 85 1024.4
20200123132211 33 292 0.9 1.7 0.00 0.00 0.00 86 1024.4
20200123131710 33 25 0.0 1.7 0.00 0.00 0.00 86 1024.4
20200123131209 32 25 0.9 1.7 0.00 0.00 0.00 87 1024.4
20200123130707 32 44 0.9 1.7 0.00 0.00 0.00 86 1024.4
20200123130207 32 69 0.9 1.7 0.00 0.00 0.00 86 1024.7
20200123125706 32 69 0.0 1.7 0.00 0.00 0.00 86 1024.7
20200123125204 32 69 0.0 1.7 0.00 0.00 0.00 86 1024.7
20200123124703 32 69 0.9 2.6 0.00 0.00 0.00 86 1024.7
20200123124202 32 69 0.0 2.6 0.00 0.00 0.00 86 1024.7
20200123123701 32 76 0.9 1.7 0.00 0.00 0.00 86 1024.7
20200123123200 32 82 0.0 1.7 0.00 0.00 0.00 86 1025.1
20200123122659 32 82 0.0 1.7 0.00 0.00 0.00 87 1025.1
20200123122157 32 82 0.0 1.7 0.00 0.00 0.00 87 1025.1
20200123121656 32 82 0.0 1.7 0.00 0.00 0.00 87 1025.1
20200123121155 31 82 0.9 1.7 0.00 0.00 0.00 87 1025.1
20200123120654 31 82 0.0 0.0 0.00 0.00 0.00 88 1025.1
20200123120153 31 82 0.0 1.7 0.00 0.00 0.00 87 1025.1
20200123115652 31 82 0.0 1.7 0.00 0.00 0.00 88 1025.4
20200123115151 31 82 0.0 1.7 0.00 0.00 0.00 88 1025.1
20200123114650 31 82 0.0 1.7 0.00 0.00 0.00 89 1025.1
20200123114148 31 82 0.0 0.0 0.00 0.00 0.00 87 1025.4
20200123113646 31 82 0.0 0.0 0.00 0.00 0.00 88 1025.4
20200123113146 30 82 0.0 1.7 0.00 0.00 0.00 88 1025.1
20200123112644 30 82 0.0 1.7 0.00 0.00 0.00 87 1025.1
20200123112143 30 82 0.0 2.6 0.00 0.00 0.00 87 1024.7
20200123111643 30 68 0.9 2.6 0.00 0.00 0.00 87 1024.7
20200123111138 30 60 0.0 1.7 0.00 0.00 0.00 87 1025.1
20200123110637 30 60 0.0 1.7 0.00 0.00 0.00 87 1025.1
20200123110136 30 59 0.0 0.0 0.00 0.00 0.00 87 1025.1
20200123105632 30 59 0.0 0.0 0.00 0.00 0.00 86 1025.1
20200123105131 30 60 0.0 0.0 0.00 0.00 0.00 86 1025.1
20200123104630 30 60 0.0 0.0 0.00 0.00 0.00 85 1024.7
20200123104130 30 59 0.0 1.7 0.00 0.00 0.00 85 1024.7
20200123103628 30 59 0.0 1.7 0.00 0.00 0.00 85 1024.7
20200123103127 30 60 0.0 1.7 0.00 0.00 0.00 85 1024.4
20200123102626 30 60 0.0 1.7 0.00 0.00 0.00 86 1024.4
20200123102125 30 59 0.0 0.0 0.00 0.00 0.00 86 1024.7
20200123101624 30 60 0.0 0.0 0.00 0.00 0.00 86 1024.7
20200123101123 30 60 0.0 0.0 0.00 0.00 0.00 86 1024.4
20200123100622 30 59 0.0 1.7 0.00 0.00 0.00 85 1024.4
20200123100121 30 60 0.0 1.7 0.00 0.00 0.00 85 1024.4
20200123095620 30 59 0.0 1.7 0.00 0.00 0.00 85 1024.4
20200123095119 30 59 0.0 2.6 0.00 0.00 0.00 85 1024.0
20200123094618 30 59 0.0 2.6 0.00 0.00 0.00 85 1024.4
20200123094117 30 60 0.9 2.6 0.00 0.00 0.00 86 1024.4
20200123093616 30 60 0.0 1.7 0.00 0.00 0.00 86 1024.7
20200123093115 30 60 0.9 1.7 0.00 0.00 0.00 87 1024.7
20200123092613 30 60 0.0 0.0 0.00 0.00 0.00 87 1024.7
20200123092112 30 61 0.0 0.0 0.00 0.00 0.00 87 1024.7
20200123091611 30 61 0.0 0.0 0.00 0.00 0.00 87 1024.7
20200123091110 30 60 0.0 0.0 0.00 0.00 0.00 86 1024.7
20200123090609 30 61 0.0 0.0 0.00 0.00 0.00 86 1024.4
20200123090107 30 60 0.0 0.0 0.00 0.00 0.00 86 1024.4
20200123085606 30 60 0.0 0.0 0.00 0.00 0.00 86 1024.4
20200123085105 30 61 0.0 0.0 0.00 0.00 0.00 86 1024.4
20200123084603 30 60 0.0 1.7 0.00 0.00 0.00 86 1024.4
20200123084102 30 60 0.0 1.7 0.00 0.00 0.00 86 1024.4
20200123083600 30 61 0.0 1.7 0.00 0.00 0.00 87 1024.4
20200123083059 30 61 0.0 1.7 0.00 0.00 0.00 87 1024.7
20200123082557 30 61 0.0 0.0 0.00 0.00 0.00 87 1024.7
20200123082055 30 60 0.0 0.0 0.00 0.00 0.00 87 1024.7
20200123081553 30 60 0.0 0.0 0.00 0.00 0.00 87 1024.7
20200123081052 30 61 0.0 0.0 0.00 0.00 0.00 87 1024.7
20200123080550 30 61 0.0 1.7 0.00 0.00 0.00 87 1024.7
20200123080049 30 60 0.0 1.7 0.00 0.00 0.00 87 1024.7
20200123075547 30 60 0.0 1.7 0.00 0.00 0.00 87 1024.7
20200123075046 30 60 0.9 1.7 0.00 0.00 0.00 87 1024.7
20200123074545 30 60 0.0 0.0 0.00 0.00 0.00 86 1024.7
20200123074043 30 61 0.0 0.0 0.00 0.00 0.00 87 1024.7
20200123073541 30 60 0.0 1.7 0.00 0.00 0.00 86 1024.7
20200123073040 30 61 0.0 1.7 0.00 0.00 0.00 87 1024.7
20200123072538 30 60 0.0 1.7 0.00 0.00 0.00 86 1024.7
20200123072037 30 60 0.9 1.7 0.00 0.00 0.00 86 1024.7
20200123071535 30 60 0.0 0.0 0.00 0.00 0.00 86 1024.7
20200123071034 30 61 0.0 0.0 0.00 0.00 0.00 86 1024.7
20200123070532 30 60 0.0 0.0 0.00 0.00 0.00 85 1024.7
20200123070030 30 61 0.0 0.0 0.00 0.00 0.00 86 1024.7
20200123065529 30 60 0.0 0.0 0.00 0.00 0.00 85 1024.7
20200123065028 30 60 0.0 0.0 0.00 0.00 0.00 85 1024.7
20200123064527 30 60 0.0 1.7 0.00 0.00 0.00 86 1024.7
20200123064027 30 60 0.0 1.7 0.00 0.00 0.00 86 1024.7
20200123063525 30 60 0.0 1.7 0.00 0.00 0.00 86 1024.7
20200123063024 30 61 0.9 1.7 0.00 0.00 0.00 86 1024.7
20200123062523 30 60 0.0 0.0 0.00 0.00 0.00 85 1025.1
20200123062021 30 60 0.0 0.0 0.00 0.00 0.00 84 1025.1
20200123061520 30 61 0.0 1.7 0.00 0.00 0.00 84 1024.7
20200123061019 30 60 0.0 1.7 0.00 0.00 0.00 84 1025.1
20200123060518 30 61 0.0 1.7 0.00 0.00 0.00 85 1025.1
20200123060017 30 60 0.0 0.0 0.00 0.00 0.00 84 1025.1
20200123055516 30 61 0.0 0.0 0.00 0.00 0.00 83 1025.1
20200123055015 30 60 0.0 1.7 0.00 0.00 0.00 83 1025.1
20200123054514 30 61 0.9 1.7 0.00 0.00 0.00 83 1025.1
20200123054012 30 61 0.0 0.0 0.00 0.00 0.00 81 1025.4
20200123053511 30 60 0.0 0.0 0.00 0.00 0.00 81 1025.1
20200123053010 30 60 0.0 0.0 0.00 0.00 0.00 80 1025.1
20200123052509 30 60 0.0 0.0 0.00 0.00 0.00 81 1025.1
20200123052007 30 60 0.0 0.0 0.00 0.00 0.00 81 1025.1
20200123051506 31 60 0.0 0.0 0.00 0.00 0.00 80 1025.4
20200123051004 31 60 0.0 1.7 0.00 0.00 0.00 79 1025.4
20200123050502 31 60 0.0 1.7 0.00 0.00 0.00 79 1025.4
20200123050001 31 60 0.0 1.7 0.00 0.00 0.00 79 1025.4
20200123045459 31 60 0.9 1.7 0.00 0.00 0.00 79 1025.4
20200123044958 31 60 0.0 0.0 0.00 0.00 0.00 79 1025.7
20200123044457 31 60 0.0 0.0 0.00 0.00 0.00 79 1025.7
20200123043956 31 60 0.0 0.0 0.00 0.00 0.00 79 1025.7
20200123043454 31 60 0.0 0.0 0.00 0.00 0.00 80 1025.7
20200123042953 31 60 0.0 0.0 0.00 0.00 0.00 79 1025.7
20200123042452 31 60 0.0 0.0 0.00 0.00 0.00 80 1025.7
20200123041950 31 60 0.0 0.0 0.00 0.00 0.00 78 1026.1
20200123041449 30 61 0.0 0.0 0.00 0.00 0.00 77 1026.1
20200123040947 30 61 0.0 0.0 0.00 0.00 0.00 77 1026.1
20200123040445 30 60 0.0 0.0 0.00 0.00 0.00 79 1025.7
20200123035944 30 60 0.0 0.0 0.00 0.00 0.00 79 1025.7
20200123035443 31 60 0.0 0.0 0.00 0.00 0.00 78 1026.1
20200123034942 31 60 0.0 0.0 0.00 0.00 0.00 78 1026.1
20200123034441 31 60 0.0 0.0 0.00 0.00 0.00 79 1026.1
20200123033940 30 61 0.0 0.0 0.00 0.00 0.00 77 1026.1
20200123033438 30 60 0.0 0.0 0.00 0.00 0.00 77 1026.1
20200123032938 30 60 0.0 0.0 0.00 0.00 0.00 76 1026.4
20200123032436 30 60 0.0 0.0 0.00 0.00 0.00 77 1026.4
20200123031935 31 60 0.0 1.7 0.00 0.00 0.00 78 1026.4
20200123031434 30 61 0.0 1.7 0.00 0.00 0.00 78 1026.4
20200123030933 31 61 0.0 1.7 0.00 0.00 0.00 77 1026.4
20200123030432 31 60 0.9 1.7 0.00 0.00 0.00 77 1026.8
20200123025930 31 60 0.0 0.0 0.00 0.00 0.00 75 1026.8
20200123025429 31 61 0.0 0.0 0.00 0.00 0.00 73 1026.8
20200123024927 31 60 0.0 0.0 0.00 0.00 0.00 74 1026.4
20200123024427 31 61 0.0 1.7 0.00 0.00 0.00 75 1026.4
20200123023924 31 60 0.0 1.7 0.00 0.00 0.00 76 1026.4
20200123023423 31 60 0.0 1.7 0.00 0.00 0.00 73 1026.8
20200123022922 31 60 0.9 1.7 0.00 0.00 0.00 77 1026.8
20200123022421 31 60 0.0 0.0 0.00 0.00 0.00 74 1026.8
20200123021920 31 60 0.0 1.7 0.00 0.00 0.00 74 1026.8
20200123021419 31 60 0.0 1.7 0.00 0.00 0.00 75 1026.8
20200123020918 31 60 0.0 1.7 0.00 0.00 0.00 76 1026.8
20200123020417 31 61 0.0 1.7 0.00 0.00 0.00 76 1027.1
20200123015916 31 60 0.0 1.7 0.00 0.00 0.00 74 1027.1
20200123015415 31 60 0.0 1.7 0.00 0.00 0.00 72 1026.8
20200123014914 31 60 0.9 1.7 0.00 0.00 0.00 73 1026.8
20200123014413 31 60 0.0 0.0 0.00 0.00 0.00 73 1027.1
20200123013911 31 60 0.0 0.0 0.00 0.00 0.00 75 1026.8
20200123013410 31 60 0.0 0.0 0.00 0.00 0.00 75 1026.8
20200123012909 31 60 0.0 1.7 0.00 0.00 0.00 74 1026.8
20200123012408 31 60 0.0 1.7 0.00 0.00 0.00 74 1026.8
20200123011907 31 60 0.0 1.7 0.00 0.00 0.00 75 1026.8
20200123011406 31 61 0.0 1.7 0.00 0.00 0.00 74 1026.8